Flag for Russia Weather past 2 weeks in Surgut, Russia

Now
59 °F

Clear.


Feels Like: 58 °F
Forecast: 60 / 72 °F
Wind: 6 mph from North

Location: Surgut Airport

Current Time: Jul 28, 2015 at 11:41:30 PM

Latest Report: Jul 28, 2015 at 11:00 PM


Visibility: 4 mi

Pressure: 29.50 "Hg

Humidity: 100%

Dew point: 59 °F

Location of SurgutLocation

Historic Weather in Surgut — Graph

°F

Surgut temperature yesterday

Maximum temperature yesterday: 66 °F (at 4:30 PM)
Minimum temperature yesterday: 59 °F (at 1:30 AM)
Average temperature yesterday: 61 °F

Past Weeks' High & Low Weather Summary

 TemperatureHumidityPressure
High77 °F (Jul 18, 4:00 PM)100% (Jul 14, 7:30 PM)29.86 "Hg (Jul 14, 7:30 PM)
Low52 °F (Jul 25, 3:30 AM)39% (Jul 21, 4:30 PM)28.91 "Hg (Jul 19, 6:30 PM)
Average64 °F78%29.54 "Hg
* Reported Jul 13 10:00 PM — Jul 28 10:30 PM, Surgut, Weather by CustomWeather, © 2015

Note: Actual official high and low records may vary slightly from our data, if they occured in-between our weather recording intervals... More about our weather records

Advertising

Surgut weather history for previous 24 hours

 ConditionsComfort  
Time TempWeatherWind HumidityBarometerVisibility
10:30 PM
Tue, Jul 28
59 °FClear.1 mph94%29.50 "Hg4 mi
10:00 PM59 °FPartly cloudy.3 mph100%29.50 "Hg4 mi
9:30 PM61 °FSprinkles. Broken clouds.6 mph94%29.50 "Hg4 mi
9:00 PM61 °FSprinkles. Broken clouds.8 mph94%29.50 "Hg4 mi
8:30 PM61 °FSprinkles. Broken clouds.13 mph94%29.50 "Hg4 mi
8:00 PM63 °FBroken clouds.8 mph88%29.50 "Hg4 mi
7:30 PM63 °FBroken clouds.6 mph88%29.47 "Hg4 mi
7:00 PM63 °FThunderstorms. Broken clouds.13 mph94%29.50 "Hg4 mi
6:30 PM63 °FBroken clouds.8 mph94%29.47 "Hg4 mi
6:00 PM63 °FBroken clouds.3 mph94%29.45 "Hg4 mi
5:30 PM61 °FThunderstorms. Broken clouds.8 mph100%29.47 "Hg4 mi
5:00 PM59 °FSleet. Cloudy.22 mph88%29.47 "Hg1 mi
4:30 PM70 °FThunderstorms. Broken clouds.8 mph69%29.45 "Hg4 mi
4:00 PM73 °FBroken clouds.10 mph61%29.45 "Hg4 mi
3:30 PM73 °FBroken clouds.13 mph57%29.45 "Hg4 mi
3:00 PM77 °FBroken clouds.13 mph51%29.42 "Hg4 mi
2:30 PM75 °FPartly sunny.13 mph50%29.42 "Hg4 mi
2:00 PM75 °FPartly sunny.13 mph50%29.45 "Hg4 mi
1:30 PM73 °FPartly sunny.13 mph57%29.42 "Hg4 mi
1:00 PM73 °FScattered clouds.15 mph53%29.42 "Hg4 mi
12:30 PM73 °FScattered clouds.15 mph53%29.42 "Hg4 mi
12:00 PM72 °FScattered clouds.13 mph57%29.42 "Hg4 mi
11:30 AM73 °FScattered clouds.15 mph53%29.42 "Hg4 mi
11:00 AM72 °FScattered clouds.15 mph57%29.42 "Hg4 mi
10:30 AM72 °FScattered clouds.15 mph61%29.42 "Hg4 mi
10:00 AM70 °FClear.15 mph60%29.42 "Hg4 mi
9:30 AM70 °FClear.15 mph60%29.42 "Hg4 mi
9:00 AM68 °FClear.13 mph64%29.42 "Hg4 mi
8:30 AM66 °FClear.13 mph68%29.42 "Hg4 mi
8:00 AM66 °FClear.13 mph68%29.42 "Hg4 mi
7:30 AM64 °FClear.13 mph73%29.39 "Hg4 mi
7:00 AM64 °FClear.13 mph78%29.39 "Hg4 mi
6:30 AM64 °FClear.13 mph78%29.39 "Hg4 mi
6:00 AM64 °FClear.13 mph78%29.39 "Hg4 mi
5:30 AM63 °FClear.13 mph83%29.39 "Hg4 mi
5:00 AM63 °FClear.13 mph83%29.39 "Hg4 mi
4:30 AM63 °FClear.10 mph83%29.36 "Hg4 mi
4:00 AM63 °FClear.13 mph83%29.36 "Hg4 mi
3:30 AM63 °FPassing clouds.10 mph83%29.36 "Hg4 mi
3:00 AM63 °FPassing clouds.10 mph88%29.36 "Hg4 mi
2:30 AM63 °FSprinkles. Passing clouds.10 mph88%29.36 "Hg4 mi
2:00 AM63 °FClear.10 mph88%29.36 "Hg4 mi
1:30 AM63 °FClear.10 mph88%29.36 "Hg4 mi
1:00 AM63 °FPassing clouds.8 mph88%29.36 "Hg4 mi
12:30 AM63 °FPassing clouds.10 mph88%29.36 "Hg4 mi
12:00 AM63 °FPassing clouds.10 mph88%29.36 "Hg4 mi
11:30 PM
Mon, Jul 27
63 °FPassing clouds.10 mph88%29.36 "Hg4 mi
11:00 PM63 °FPassing clouds.10 mph88%29.39 "Hg4 mi
Weather by CustomWeather, © 2015

See weather overviewHow to use our weather pages